Home > Weather > Theni > Past weeks

Flag for India Weather for the Past 2 Weeks in Theni, Tamil Nadu, India

Now
82 °F

Haze.


Feels Like: 88 °F
Forecast: 74 / 99 °F
Wind: No wind

Location: Coimbatore / Peelamedu

Current Time: May 4, 2016 at 8:25:50 AM

Latest Report: May 4, 2016 at 7:30 AM


Visibility: 2 mi

Pressure: 29.89 "Hg

Humidity: 74%

Dew Point: 73 °F

Location of TheniLocation

Historic Weather in Theni — Graph

°F

Theni Temperature Yesterday

Maximum temperature yesterday: 102 °F (at 3:30 PM)
Minimum temperature yesterday: 79 °F (at 5:30 AM)
Average temperature yesterday: 90 °F

High & Low Weather Summary for the Past Weeks

 TemperatureHumidityPressure
High102 °F (Apr 20, 4:00 PM)94% (Apr 21, 5:30 AM)29.98 "Hg (Apr 21, 5:30 AM)
Low79 °F (Apr 19, 6:30 AM)20% (May 3, 4:30 PM)29.65 "Hg (Apr 24, 4:30 PM)
Average89 °F58%29.84 "Hg
* Reported Apr 19 6:30 AM — May 4 7:00 AM, Theni, Weather by CustomWeather, © 2016

Note: Actual official high and low records may vary slightly from our data, if they occured in-between our weather recording intervals... More about our weather records

Advertising

Theni Weather History for the Previous 24 Hours

Scroll right to see more
 ConditionsComfort  
Time TempWeatherWind HumidityBarometerVisibility
7:00 AM
Wed, May 4
81 °FFog.2 mph79%29.89 "Hg2 mi
6:30 AM81 °FFog.3 mph79%29.86 "Hg2 mi
6:00 AM81 °FFog.No wind79%29.86 "Hg3 mi
5:30 AM81 °FFog.No wind79%29.83 "Hg3 mi
4:30 AM81 °FHaze.5 mph79%29.83 "Hg3 mi
3:30 AM81 °FHaze.5 mph79%29.80 "Hg3 mi
2:30 AM81 °FHaze.5 mph79%29.80 "Hg3 mi
12:30 AM82 °FPassing clouds.6 mph74%29.86 "Hg4 mi
11:30 PM
Tue, May 3
82 °FPassing clouds.7 mph74%29.86 "Hg4 mi
11:00 PM82 °FPassing clouds.5 mph79%29.86 "Hg4 mi
10:30 PM84 °FPassing clouds.7 mph74%29.86 "Hg4 mi
9:30 PM86 °FPassing clouds.8 mph70%29.83 "Hg4 mi
9:00 PM86 °FPassing clouds.10 mph70%29.83 "Hg4 mi
8:30 PM88 °FPassing clouds.9 mph62%29.83 "Hg4 mi
8:00 PM90 °FPassing clouds.10 mph59%29.80 "Hg4 mi
7:30 PM91 °FPassing clouds.8 mph56%29.77 "Hg4 mi
7:00 PM93 °FPassing clouds.8 mph49%29.77 "Hg4 mi
6:30 PM95 °FPassing clouds.10 mph41%29.77 "Hg4 mi
6:00 PM99 °FPassing clouds.6 mph27%29.74 "Hg4 mi
5:00 PM102 °FPassing clouds.2 mph20%29.74 "Hg5 mi
4:30 PM102 °FPassing clouds.No wind20%29.74 "Hg5 mi
4:00 PM102 °FPassing clouds.2 mph23%29.74 "Hg5 mi
3:30 PM102 °FPassing clouds.2 mph21%29.74 "Hg5 mi
3:00 PM100 °FPassing clouds.No wind24%29.74 "Hg5 mi
2:30 PM100 °FPassing clouds.2 mph24%29.77 "Hg5 mi
2:00 PM100 °FClear.No wind27%29.80 "Hg5 mi
1:30 PM100 °FClear.2 mph27%29.80 "Hg5 mi
1:00 PM99 °FPassing clouds.No wind33%29.83 "Hg5 mi
12:30 PM99 °FPassing clouds.3 mph33%29.86 "Hg5 mi
11:30 AM97 °FClear.7 mph37%29.89 "Hg4 mi
11:00 AM93 °FClear.3 mph41%29.89 "Hg4 mi
10:30 AM91 °FClear.3 mph46%29.89 "Hg4 mi
10:00 AM90 °FClear.2 mph52%29.92 "Hg4 mi
9:30 AM88 °FHaze.No wind55%29.92 "Hg3 mi
9:00 AM86 °FHaze.No wind62%29.92 "Hg3 mi
8:30 AM84 °FHaze.No wind70%29.92 "Hg3 mi
8:00 AM82 °FFog.2 mph74%29.92 "Hg3 mi
Weather by CustomWeather, © 2016

See weather overviewHow to use our weather pages